Green Bay, WI

9:00 PM CDT on July 25, 2017 (GMT -0500)
Austin Straubel International

Weather History for KGRB - October, 2013

Change the Weather History Date:

Thursday, October 24, 2013

  Actual Average Record
Temperature  
Mean Temperature 38 °F 44 °F  
Max Temperature 46 °F 53 °F 76 °F (1963)
Min Temperature 29 °F 35 °F 19 °F (1981)
Degree Days  
Heating Degree Days 27 21  
Month to date heating degree days 324 402  
Since 1 July heating degree days 535 672  
Cooling Degree Days 0 0  
Month to date cooling degree days 2 0  
Year to date cooling degree days 535 395  
Moisture  
Dew Point 26 °F    
Average Humidity 64    
Maximum Humidity 78    
Minimum Humidity 49    
Precipitation  
Precipitation T in 0.07 in 1.29 in (1967)
Month to date precipitation 1.75 1.91  
Year to date precipitation 28.63 25.35  
Snow  
Snow T in 0.00 in 3.50 in (1933)
Month to date snowfall T 0.1  
Since 1 July snowfall T 0.1  
Since 1 September snowfall T 0.1  
Snow Depth 0.00 in    
Sea Level Pressure  
Sea Level Pressure 30.12 in    
Wind  
Wind Speed 10 mph (WNW)    
Max Wind Speed 20 mph    
Max Gust Speed 24 mph    
Visibility 10 miles    
Events      
T = Trace of Precipitation, MM = Missing Value Source: NWS Daily Summary

Daily Weather History Graph

Daily Weather History Graph

Search for Another Location

Airport or City:

Trip Planner

Search our weather history database for the weather conditions in past years. The results will help you decide how hot, cold, wet, or windy it might be!

Date:

Astronomy

Oct. 24, 2013 Rise Set
Actual Time 7:19 AM CDT 5:53 PM CDT
Civil Twilight 6:49 AM CDT 6:22 PM CDT
Nautical Twilight 6:15 AM CDT 6:56 PM CDT
Astronomical Twilight 5:42 AM CDT 7:30 PM CDT
Moon 10:12 PM CDT (10/24) 12:25 PM CDT (10/24)
Length of Visible Light 11h 33m
Length of Day
10h 33m
Waning Gibbous, 71% of the Moon is Illuminated
Oct 24
Waning Gibbous
Oct 26
Last Quarter
Nov 3
New
Nov 9
First Quarter
Nov 17
Full

Hourly Weather History & Observations

Time (CDT) Temp. Windchill Dew Point Humidity Pressure Visibility Wind Dir Wind Speed Gust Speed Precip Events Conditions
12:53 AM 30.9 °F 24.3 °F 23.0 °F 72% 29.99 in 10.0 mi West 6.9 mph - N/A   Partly Cloudy
1:53 AM 30.9 °F 22.8 °F 24.1 °F 76% 30.00 in 10.0 mi West 9.2 mph - N/A   Clear
2:53 AM 28.9 °F 21.9 °F 23.0 °F 78% 30.01 in 10.0 mi WNW 6.9 mph - N/A   Clear
3:53 AM 30.0 °F 21.1 °F 24.1 °F 79% 30.01 in 10.0 mi WNW 10.4 mph - N/A   Mostly Cloudy
4:53 AM 28.9 °F 21.1 °F 23.0 °F 78% 30.03 in 10.0 mi West 8.1 mph - N/A   Clear
5:53 AM 33.1 °F 24.9 °F 25.0 °F 72% 30.05 in 10.0 mi WNW 10.4 mph - N/A   Overcast
6:53 AM 34.0 °F 24.2 °F 25.0 °F 70% 30.06 in 10.0 mi WNW 15.0 mph - N/A   Overcast
7:53 AM 34.0 °F 27.2 °F 25.0 °F 70% 30.08 in 10.0 mi WNW 8.1 mph - N/A   Overcast
8:53 AM 36.0 °F 28.5 °F 26.1 °F 67% 30.10 in 10.0 mi West 10.4 mph - N/A   Overcast
9:53 AM 37.9 °F 29.6 °F 28.0 °F 68% 30.11 in 10.0 mi WNW 13.8 mph - N/A   Overcast
10:53 AM 39.9 °F 33.9 °F 28.0 °F 63% 30.13 in 10.0 mi WNW 9.2 mph - N/A   Scattered Clouds
11:53 AM 41.0 °F 33.5 °F 27.0 °F 57% 30.13 in 10.0 mi WNW 13.8 mph 21.9 mph N/A   Mostly Cloudy
12:53 PM 44.1 °F 37.7 °F 28.9 °F 55% 30.13 in 10.0 mi West 12.7 mph - N/A   Overcast
1:53 PM 43.0 °F 36.4 °F 28.0 °F 56% 30.12 in 10.0 mi West 12.7 mph - N/A   Mostly Cloudy
2:53 PM 46.0 °F 39.0 °F 28.0 °F 50% 30.13 in 10.0 mi West 17.3 mph 24.2 mph N/A   Mostly Cloudy
3:53 PM 43.0 °F 37.7 °F 26.1 °F 51% 30.15 in 10.0 mi NW 9.2 mph - 0.00 in   Overcast
4:53 PM 42.1 °F 38.4 °F 27.0 °F 55% 30.16 in 10.0 mi NW 5.8 mph - N/A   Overcast
5:53 PM 42.1 °F 36.1 °F 27.0 °F 55% 30.18 in 10.0 mi WNW 10.4 mph - N/A   Overcast
6:53 PM 41.0 °F 34.7 °F 28.0 °F 60% 30.20 in 10.0 mi WNW 10.4 mph - N/A   Overcast
7:53 PM 39.0 °F 33.4 °F 28.0 °F 65% 30.22 in 10.0 mi WNW 8.1 mph - N/A   Overcast
8:53 PM 39.0 °F 33.4 °F 27.0 °F 62% 30.23 in 10.0 mi WNW 8.1 mph - N/A   Overcast
9:53 PM 36.0 °F 30.3 °F 26.1 °F 67% 30.25 in 10.0 mi WNW 6.9 mph - N/A   Overcast
10:53 PM 32.0 °F 26.4 °F 26.1 °F 79% 30.26 in 10.0 mi West 5.8 mph - N/A   Clear
11:53 PM 30.9 °F 24.3 °F 25.0 °F 79% 30.27 in 10.0 mi West 6.9 mph - N/A   Clear